Back to catalog

DB-PRECISIONFLIGHTWORKSP

AliveScienceSSO
NORAD 68466·PAYLOAD·🇬🇧 United Kingdom

Launched Mar 30, 2026 from Vandenberg Space Force Base

Loading…

Next Passes (next 24 hours)

TLE

FreshSource: Space-Track

Epoch: Sep 14, 2026, 07:17 UTC

1 68466U 26067BC  26257.30358786  .00005897  00000-0  28783-3 0  9993
2 68466  97.4584 214.2660 0007570 120.5870 239.6112 15.18636193 25309

Track DB-PRECISIONFLIGHTWORKSP in real time with AllMySat

Download on the App Store